Time,TemperatureF,DewpointF,PressureIn,WindDirection,WindDirectionDegrees,WindSpeedMPH,WindSpeedGustMPH,Humidity,HourlyPrecipIn,Conditions,Clouds,dailyrainin,SolarRadiationWatts/m^2,SoftwareType,DateUTC
2013-02-20 00:02:00,24.0,20.0,-100.00,WNW,291,6.0,15.0,86,0.00,,,0.01,0.000000,,2013-02-20 05:02:00,
2013-02-20 00:32:00,23.0,15.0,-100.00,WNW,298,6.0,17.0,70,0.00,,,0.01,0.000000,,2013-02-20 05:32:00,
2013-02-20 00:43:00,23.0,15.0,-100.00,WNW,298,6.0,17.0,70,0.00,,,0.01,0.000000,,2013-02-20 05:43:00,
2013-02-20 00:52:00,23.0,15.0,-100.00,WNW,298,6.0,17.0,70,0.00,,,0.01,0.000000,,2013-02-20 05:52:00,
2013-02-20 01:02:00,23.0,15.0,-100.00,WNW,298,6.0,17.0,70,0.00,,,0.01,0.000000,,2013-02-20 06:02:00,
2013-02-20 01:32:00,23.0,16.0,-100.00,WNW,301,7.0,18.0,73,0.00,,,0.01,0.000000,,2013-02-20 06:32:00,
2013-02-20 01:42:00,23.0,16.0,-100.00,WNW,301,7.0,18.0,73,0.00,,,0.01,0.000000,,2013-02-20 06:42:00,
2013-02-20 01:52:00,23.0,16.0,-100.00,WNW,301,7.0,18.0,73,0.00,,,0.01,0.000000,,2013-02-20 06:52:00,
2013-02-20 02:02:00,23.0,16.0,-100.00,WNW,301,7.0,18.0,73,0.00,,,0.01,0.000000,,2013-02-20 07:02:00,
2013-02-20 04:32:00,19.0,10.0,-100.00,WNW,298,6.0,16.0,66,-99.99,,,0.01,0.000000,,2013-02-20 09:32:00,
2013-02-20 04:42:00,19.0,10.0,-100.00,WNW,298,6.0,16.0,66,-99.99,,,0.01,0.000000,,2013-02-20 09:42:00,
2013-02-20 04:52:00,19.0,10.0,-100.00,WNW,298,6.0,16.0,66,-99.99,,,0.01,0.000000,,2013-02-20 09:52:00,
2013-02-20 05:01:00,19.0,10.0,-100.00,WNW,298,6.0,16.0,66,-99.99,,,0.01,0.000000,,2013-02-20 10:01:00,
2013-02-20 05:32:00,17.0,6.0,-100.00,WNW,291,7.0,21.0,62,0.00,,,0.01,0.000000,,2013-02-20 10:32:00,
2013-02-20 05:42:00,17.0,6.0,-100.00,WNW,291,7.0,21.0,62,0.00,,,0.01,0.000000,,2013-02-20 10:42:00,
2013-02-20 05:52:00,17.0,6.0,-100.00,WNW,291,7.0,21.0,62,0.00,,,0.01,0.000000,,2013-02-20 10:52:00,
2013-02-20 06:02:00,17.0,6.0,-100.00,WNW,291,7.0,21.0,62,0.00,,,0.01,0.000000,,2013-02-20 11:02:00,
2013-02-20 06:32:00,16.0,6.0,-100.00,WNW,293,6.0,19.0,64,0.00,,,0.01,0.000000,,2013-02-20 11:32:00,
2013-02-20 06:42:00,16.0,6.0,-100.00,WNW,293,6.0,19.0,64,0.00,,,0.01,0.000000,,2013-02-20 11:42:00,
2013-02-20 06:52:00,16.0,6.0,-100.00,WNW,293,6.0,19.0,64,0.00,,,0.01,0.000000,,2013-02-20 11:52:00,
2013-02-20 07:02:00,16.0,6.0,-100.00,WNW,293,6.0,19.0,64,0.00,,,0.01,0.000000,,2013-02-20 12:02:00,
2013-02-20 07:32:00,16.0,6.0,-100.00,WNW,292,4.0,12.0,64,0.00,,,0.01,0.000000,,2013-02-20 12:32:00,
2013-02-20 07:42:00,16.0,6.0,-100.00,WNW,292,4.0,12.0,64,0.00,,,0.01,0.000000,,2013-02-20 12:42:00,
2013-02-20 07:53:00,16.0,6.0,-100.00,WNW,292,4.0,12.0,64,0.00,,,0.01,0.000000,,2013-02-20 12:53:00,
2013-02-20 08:01:00,16.0,6.0,-100.00,WNW,292,4.0,12.0,64,0.00,,,0.01,0.000000,,2013-02-20 13:01:00,
2013-02-20 09:32:00,18.0,9.0,-100.00,WNW,285,6.0,14.0,66,-99.99,,,0.01,23.000000,,2013-02-20 14:32:00,
2013-02-20 09:42:00,18.0,9.0,-100.00,WNW,285,6.0,14.0,66,-99.99,,,0.01,23.000000,,2013-02-20 14:42:00,
2013-02-20 09:52:00,18.0,9.0,-100.00,WNW,285,6.0,14.0,66,-99.99,,,0.01,23.000000,,2013-02-20 14:52:00,
2013-02-20 10:02:00,18.0,9.0,-100.00,WNW,285,6.0,14.0,66,-99.99,,,0.01,23.000000,,2013-02-20 15:02:00,
2013-02-20 10:32:00,19.0,8.0,-100.00,West,281,7.0,18.0,61,0.00,,,0.01,50.000000,,2013-02-20 15:32:00,
2013-02-20 10:42:00,19.0,8.0,-100.00,West,281,7.0,18.0,61,0.00,,,0.01,50.000000,,2013-02-20 15:42:00,
2013-02-20 10:52:00,19.0,8.0,-100.00,West,281,7.0,18.0,61,0.00,,,0.01,50.000000,,2013-02-20 15:52:00,
2013-02-20 11:01:00,19.0,8.0,-100.00,West,281,7.0,18.0,61,0.00,,,0.01,50.000000,,2013-02-20 16:01:00,
2013-02-20 11:32:00,20.0,11.0,-100.00,WNW,284,6.0,16.0,69,0.00,,,-99.99,50.000000,,2013-02-20 16:32:00,
2013-02-20 11:42:00,20.0,11.0,-100.00,WNW,284,6.0,16.0,69,0.00,,,-99.99,50.000000,,2013-02-20 16:42:00,
2013-02-20 11:52:00,20.0,11.0,-100.00,WNW,284,6.0,16.0,69,0.00,,,-99.99,50.000000,,2013-02-20 16:52:00,
2013-02-20 12:01:00,20.0,11.0,-100.00,WNW,284,6.0,16.0,69,0.00,,,-99.99,50.000000,,2013-02-20 17:01:00,
2013-02-20 12:32:00,20.0,13.0,-100.00,WNW,282,7.0,16.0,73,0.00,,,0.01,55.000000,,2013-02-20 17:32:00,
2013-02-20 12:42:00,20.0,13.0,-100.00,WNW,282,7.0,16.0,73,0.00,,,0.01,55.000000,,2013-02-20 17:42:00,
2013-02-20 12:52:00,20.0,13.0,-100.00,WNW,282,7.0,16.0,73,0.00,,,0.01,55.000000,,2013-02-20 17:52:00,
2013-02-20 13:02:00,20.0,13.0,-100.00,WNW,282,7.0,16.0,73,0.00,,,0.01,55.000000,,2013-02-20 18:02:00,
2013-02-20 13:32:00,23.0,11.0,-100.00,WNW,290,6.0,17.0,59,0.00,,,0.01,90.000000,,2013-02-20 18:32:00,
2013-02-20 13:42:00,23.0,11.0,-100.00,WNW,290,6.0,17.0,59,0.00,,,0.01,90.000000,,2013-02-20 18:42:00,
2013-02-20 13:52:00,23.0,11.0,-100.00,WNW,290,6.0,17.0,59,0.00,,,0.01,90.000000,,2013-02-20 18:52:00,
2013-02-20 14:01:00,23.0,11.0,-100.00,WNW,290,6.0,17.0,59,0.00,,,0.01,90.000000,,2013-02-20 19:01:00,
2013-02-20 14:32:00,23.0,7.0,-100.00,West,280,9.0,26.0,50,0.00,,,0.01,80.000000,,2013-02-20 19:32:00,
2013-02-20 14:42:00,23.0,7.0,-100.00,West,280,9.0,26.0,50,0.00,,,0.01,80.000000,,2013-02-20 19:42:00,
2013-02-20 14:52:00,23.0,7.0,-100.00,West,280,9.0,26.0,50,0.00,,,0.01,80.000000,,2013-02-20 19:52:00,
2013-02-20 15:01:00,23.0,7.0,-100.00,West,280,9.0,26.0,50,0.00,,,0.01,80.000000,,2013-02-20 20:01:00,
2013-02-20 15:31:00,21.0,8.0,-100.00,WNW,297,7.0,19.0,57,0.00,,,0.01,61.000000,,2013-02-20 20:31:00,
2013-02-20 15:41:00,21.0,8.0,-100.00,WNW,297,7.0,19.0,57,0.00,,,0.01,61.000000,,2013-02-20 20:41:00,
2013-02-20 15:52:00,21.0,8.0,-100.00,WNW,297,7.0,19.0,57,0.00,,,0.01,61.000000,,2013-02-20 20:52:00,
2013-02-20 16:01:00,21.0,8.0,-100.00,WNW,297,7.0,19.0,57,0.00,,,0.01,61.000000,,2013-02-20 21:01:00,
2013-02-20 16:32:00,22.0,9.0,-100.00,WNW,288,5.0,17.0,56,0.00,,,0.01,50.000000,,2013-02-20 21:32:00,
2013-02-20 16:42:00,22.0,9.0,-100.00,WNW,288,5.0,17.0,56,0.00,,,0.01,50.000000,,2013-02-20 21:42:00,
2013-02-20 16:52:00,22.0,9.0,-100.00,WNW,288,5.0,17.0,56,0.00,,,0.01,50.000000,,2013-02-20 21:52:00,
2013-02-20 17:02:00,22.0,9.0,-100.00,WNW,288,5.0,17.0,56,0.00,,,0.01,50.000000,,2013-02-20 22:02:00,
2013-02-20 17:32:00,20.0,6.0,-100.00,WNW,302,9.0,25.0,53,0.00,,,0.01,41.000000,,2013-02-20 22:32:00,
2013-02-20 17:43:00,20.0,6.0,-100.00,WNW,302,9.0,25.0,53,0.00,,,0.01,41.000000,,2013-02-20 22:43:00,
2013-02-20 17:52:00,20.0,6.0,-100.00,WNW,302,9.0,25.0,53,0.00,,,0.01,41.000000,,2013-02-20 22:52:00,
2013-02-20 18:01:00,20.0,6.0,-100.00,WNW,302,9.0,25.0,53,0.00,,,0.01,41.000000,,2013-02-20 23:01:00,
2013-02-20 18:32:00,18.0,5.0,-100.00,WNW,297,8.0,19.0,56,0.00,,,0.01,4.000000,,2013-02-20 23:32:00,
2013-02-20 18:43:00,18.0,5.0,-100.00,WNW,297,8.0,19.0,56,0.00,,,0.01,4.000000,,2013-02-20 23:43:00,
2013-02-20 18:53:00,18.0,5.0,-100.00,WNW,297,8.0,19.0,56,0.00,,,0.01,4.000000,,2013-02-20 23:53:00,
2013-02-20 19:03:00,18.0,5.0,-100.00,WNW,297,8.0,19.0,56,0.00,,,0.01,4.000000,,2013-02-21 00:03:00,
2013-02-20 19:32:00,17.0,5.0,-100.00,WNW,294,8.0,22.0,59,0.00,,,0.01,0.000000,,2013-02-21 00:32:00,
2013-02-20 19:42:00,17.0,5.0,-100.00,WNW,294,8.0,22.0,59,0.00,,,0.01,0.000000,,2013-02-21 00:42:00,
2013-02-20 19:52:00,17.0,5.0,-100.00,WNW,294,8.0,22.0,59,0.00,,,0.01,0.000000,,2013-02-21 00:52:00,
2013-02-20 20:01:00,17.0,5.0,-100.00,WNW,294,8.0,22.0,59,0.00,,,0.01,0.000000,,2013-02-21 01:01:00,
2013-02-20 20:32:00,16.0,5.0,-100.00,WNW,290,7.0,20.0,62,0.00,,,0.00,0.000000,,2013-02-21 01:32:00,
2013-02-20 20:42:00,16.0,5.0,-100.00,WNW,290,7.0,20.0,62,0.00,,,0.00,0.000000,,2013-02-21 01:42:00,
2013-02-20 20:52:00,16.0,5.0,-100.00,WNW,290,7.0,20.0,62,0.00,,,0.00,0.000000,,2013-02-21 01:52:00,
2013-02-20 21:02:00,16.0,5.0,-100.00,WNW,290,7.0,20.0,62,0.00,,,0.00,0.000000,,2013-02-21 02:02:00,
2013-02-20 21:32:00,16.0,6.0,-100.00,WNW,303,9.0,18.0,63,0.00,,,0.00,0.000000,,2013-02-21 02:32:00,
2013-02-20 21:42:00,16.0,6.0,-100.00,WNW,303,9.0,18.0,63,0.00,,,0.00,0.000000,,2013-02-21 02:42:00,
2013-02-20 21:52:00,16.0,6.0,-100.00,WNW,303,9.0,18.0,63,0.00,,,0.00,0.000000,,2013-02-21 02:52:00,
2013-02-20 22:02:00,16.0,6.0,-100.00,WNW,303,9.0,18.0,63,0.00,,,0.00,0.000000,,2013-02-21 03:02:00,
2013-02-20 22:32:00,16.0,6.0,-100.00,WNW,292,7.0,17.0,63,0.00,,,0.00,0.000000,,2013-02-21 03:32:00,
2013-02-20 22:42:00,16.0,6.0,-100.00,WNW,292,7.0,17.0,63,0.00,,,0.00,0.000000,,2013-02-21 03:42:00,
2013-02-20 22:52:00,16.0,6.0,-100.00,WNW,292,7.0,17.0,63,0.00,,,0.00,0.000000,,2013-02-21 03:52:00,
2013-02-20 23:01:00,16.0,6.0,-100.00,WNW,292,7.0,17.0,63,0.00,,,0.00,0.000000,,2013-02-21 04:01:00,
2013-02-20 23:32:00,16.0,6.0,-100.00,WNW,298,6.0,14.0,65,0.00,,,0.00,0.000000,,2013-02-21 04:32:00,
2013-02-20 23:42:00,16.0,6.0,-100.00,WNW,298,6.0,14.0,65,0.00,,,0.00,0.000000,,2013-02-21 04:42:00,
2013-02-20 23:52:00,16.0,6.0,-100.00,WNW,298,6.0,14.0,65,0.00,,,0.00,0.000000,,2013-02-21 04:52:00,